DW8947 Weather Reports


time (UTC)temp
C
wind
direction
speed
KPH
gust
KPH
rain 1hr
cm
rain 24hr
cm
rain mn
cm
humidity
%
barometer
mb
20260503224204 26 295 1.6 4.8 0.00 0.00 0.00 36 1009.2
20260503223704 26 0 1.6 3.2 0.00 0.00 0.00 37 1009.3
20260503223204 26 173 1.6 4.8 0.00 0.00 0.00 35 1009.4
20260503222704 26 234 0.0 3.2 0.00 0.00 0.00 38 1009.5
20260503221704 26 334 1.6 4.8 0.00 0.00 0.00 35 1009.6
20260503221203 26 302 1.6 3.2 0.00 0.00 0.00 35 1009.7
20260503220203 26 307 1.6 4.8 0.00 0.00 0.00 35 1009.8
20260503215704 26 328 1.6 4.8 0.00 0.00 0.00 36 1009.8
20260503215203 25 216 1.6 11.3 0.00 0.00 0.00 36 1009.8
20260503214704 25 338 3.2 4.8 0.00 0.00 0.00 38 1010.0
20260503213704 25 356 0.0 3.2 0.00 0.00 0.00 38 1010.1
20260503213203 25 291 1.6 3.2 0.00 0.00 0.00 40 1010.2
20260503212704 25 4 1.6 4.8 0.00 0.00 0.00 39 1010.2
20260503212204 25 300 1.6 3.2 0.00 0.00 0.00 40 1010.2
20260503211204 25 335 1.6 3.2 0.00 0.00 0.00 43 1010.3
20260503210203 25 313 1.6 3.2 0.00 0.00 0.00 44 1010.4
20260503205204 25 237 1.6 3.2 0.00 0.00 0.00 42 1010.4
20260503204704 25 92 1.6 3.2 0.00 0.00 0.00 42 1010.5
20260503203703 25 327 1.6 3.2 0.00 0.00 0.00 41 1010.6
20260503203203 25 290 1.6 4.8 0.00 0.00 0.00 40 1010.6
20260503202204 25 332 0.0 3.2 0.00 0.00 0.00 40 1010.7
20260503201703 25 348 1.6 4.8 0.00 0.00 0.00 41 1010.8
20260503201203 25 299 1.6 3.2 0.00 0.00 0.00 42 1010.8
20260503200703 25 273 1.6 3.2 0.00 0.00 0.00 41 1011.0
20260503194706 24 335 1.6 4.8 0.00 0.00 0.00 43 1011.2
20260503194204 24 320 0.0 3.2 0.00 0.00 0.00 44 1011.2
20260503193704 24 316 1.6 1.6 0.00 0.00 0.00 44 1011.3
20260503193204 24 325 0.0 4.8 0.00 0.00 0.00 45 1011.3
20260503192704 24 34 1.6 3.2 0.00 0.00 0.00 46 1011.4
20260503191204 23 318 0.0 3.2 0.00 0.00 0.00 46 1011.4
20260503190704 23 312 0.0 1.6 0.00 0.00 0.00 48 1011.5
20260503185204 22 315 0.0 3.2 0.00 0.00 0.00 49 1011.6
20260503184704 22 315 0.0 3.2 0.00 0.00 0.00 49 1011.7
20260503183704 22 173 1.6 4.8 0.00 0.00 0.00 50 1011.8
20260503183204 22 300 1.6 4.8 0.00 0.00 0.00 49 1011.9
20260503181703 21 308 1.6 4.8 0.00 0.00 0.00 51 1012.0
20260503181204 21 281 1.6 4.8 0.00 0.00 0.00 54 1012.0
20260503180204 21 273 3.2 4.8 0.00 0.00 0.00 53 1012.0
20260503175704 21 240 0.0 4.8 0.00 0.00 0.00 55 1012.0
20260503175204 20 311 1.6 4.8 0.00 0.00 0.00 55 1012.1
20260503174704 20 316 1.6 4.8 0.00 0.00 0.00 56 1012.2
20260503174204 20 193 1.6 3.2 0.00 0.00 0.00 55 1012.2
20260503173704 20 35 1.6 4.8 0.00 0.00 0.00 56 1012.2
20260503173204 20 15 1.6 3.2 0.00 0.00 0.00 56 1012.3
20260503172705 19 312 1.6 4.8 0.00 0.00 0.00 58 1012.4
20260503170205 18 288 0.0 3.2 0.00 0.00 0.00 65 1012.4
20260503131204 15 22 0.0 3.2 0.00 0.00 0.00 68 1012.1
20260503110704 15 265 0.0 3.2 0.00 0.00 0.00 64 1012.4
20260503110204 15 265 0.0 3.2 0.00 0.00 0.00 64 1012.3
20260503100204 13 17 0.0 3.2 0.00 0.00 0.00 75 1012.7
20260503090203 15 17 0.0 3.2 0.00 0.00 0.00 66 1012.5
20260503081204 17 121 0.0 3.2 0.00 0.00 0.00 56 1012.5
20260503080704 17 121 0.0 3.2 0.00 0.00 0.00 58 1012.4
20260503071204 17 39 0.0 3.2 0.00 0.00 0.00 58 1012.2
20260503060204 17 148 0.0 3.2 0.00 0.00 0.00 57 1012.4
20260503053204 17 102 0.0 1.6 0.00 0.00 0.00 58 1012.3
20260503052703 17 102 0.0 3.2 0.00 0.00 0.00 57 1012.3
20260503050704 17 88 1.6 3.2 0.00 0.00 0.00 57 1012.2
20260503050204 17 107 0.0 3.2 0.00 0.00 0.00 56 1012.2
20260503045704 17 88 0.0 3.2 0.00 0.00 0.00 57 1012.2
20260503042704 17 34 0.0 3.2 0.00 0.00 0.00 57 1011.9
20260503042204 18 13 0.0 3.2 0.00 0.00 0.00 57 1011.9
20260503041203 18 34 0.0 3.2 0.00 0.00 0.00 57 1011.8
20260503040704 18 71 1.6 4.8 0.00 0.00 0.00 56 1011.7
20260503040204 18 49 0.0 3.2 0.00 0.00 0.00 57 1011.7
20260503035704 18 23 0.0 3.2 0.00 0.00 0.00 57 1011.6
20260503033704 18 87 0.0 3.2 0.00 0.00 0.00 55 1011.4
20260503033205 18 19 0.0 1.6 0.00 0.00 0.00 56 1011.3
20260503032204 18 39 1.6 8.0 0.00 0.00 0.00 54 1011.3
20260503025204 19 39 0.0 3.2 0.00 0.00 0.00 54 1011.1
20260503022704 20 26 0.0 4.8 0.00 0.00 0.00 53 1011.1
20260503015704 21 16 3.2 8.0 0.00 0.00 0.00 48 1011.2
20260503014704 21 338 1.6 4.8 0.00 0.00 0.00 48 1011.3
20260503014204 21 36 1.6 3.2 0.00 0.00 0.00 48 1011.3
20260503013204 21 335 1.6 4.8 0.00 0.00 0.00 46 1011.3
20260503012204 21 264 3.2 4.8 0.00 0.00 0.00 47 1011.3
20260503010204 22 66 1.6 4.8 0.00 0.00 0.00 48 1011.2
20260503005704 21 331 1.6 4.8 0.00 0.00 0.00 47 1011.3
20260503003704 22 56 1.6 8.0 0.00 0.00 0.00 46 1011.3
20260503003204 22 350 1.6 4.8 0.00 0.00 0.00 47 1011.4
20260503002203 22 348 1.6 4.8 0.00 0.00 0.00 47 1011.4
20260503001704 22 29 1.6 9.7 0.00 0.00 0.00 48 1011.3
20260503000704 22 347 1.6 4.8 0.00 0.00 0.00 48 1011.4
20260502234704 22 6 3.2 11.3 0.00 0.00 0.00 46 1011.6
20260502234204 22 322 1.6 9.7 0.00 0.00 0.00 47 1011.7
20260502232204 22 350 3.2 8.0 0.00 0.00 0.00 48 1012.0
20260502231704 22 321 1.6 8.0 0.00 0.00 0.00 48 1012.0
20260502231205 22 355 1.6 4.8 0.00 0.00 0.00 49 1012.0
20260502230705 22 337 3.2 8.0 0.00 0.00 0.00 47 1012.2
20260502230205 22 313 1.6 4.8 0.00 0.00 0.00 48 1012.3
20260502225705 22 325 3.2 4.8 0.00 0.00 0.00 48 1012.4